GW2884 Weather Reports


time (UTC)temp
F
wind
direction
speed
knots
gust
knots
rain 1hr
in
rain 24hr
in
rain mn
in
humidity
%
barometer
mb
20260502224528 61 151 0.0 0.0 0.00 0.00 0.00 40 1008.2
20260502224025 61 230 0.9 1.7 0.00 0.00 0.00 37 1008.2
20260502223523 61 149 0.0 0.9 0.00 0.00 0.00 38 1008.2
20260502223021 61 193 2.6 3.5 0.00 0.00 0.00 37 1008.3
20260502222518 61 217 3.5 3.5 0.00 0.00 0.00 37 1008.6
20260502222014 61 201 3.5 3.5 0.00 0.00 0.00 36 1008.5
20260502221510 61 174 1.7 3.5 0.00 0.00 0.00 38 1008.4
20260502221008 61 152 2.6 3.5 0.00 0.00 0.00 35 1008.5
20260502220503 62 183 1.7 2.6 0.00 0.00 0.00 36 1008.4
20260502220000 61 185 4.3 6.1 0.00 0.00 0.00 36 1008.5
20260502215457 62 190 6.1 7.8 0.00 0.00 0.00 35 1008.7
20260502214954 62 183 5.2 7.8 0.00 0.00 0.00 34 1008.6
20260502214451 63 179 4.3 6.1 0.00 0.00 0.00 35 1008.9
20260502213948 62 189 5.2 6.1 0.00 0.00 0.00 35 1009.0
20260502213445 62 174 4.3 5.2 0.00 0.00 0.00 34 1009.0
20260502212943 62 135 3.5 5.2 0.00 0.00 0.00 33 1009.1
20260502212442 62 195 4.3 5.2 0.00 0.00 0.00 34 1008.9
20260502211939 62 211 7.0 8.7 0.00 0.00 0.00 34 1009.0
20260502211434 62 196 3.5 3.5 0.00 0.00 0.00 35 1009.1
20260502210932 64 150 5.2 7.0 0.00 0.00 0.00 34 1009.2
20260502210428 63 175 2.6 3.5 0.00 0.00 0.00 34 1009.1
20260502205926 63 173 4.3 6.1 0.00 0.00 0.00 33 1009.4
20260502205422 63 211 1.7 2.6 0.00 0.00 0.00 34 1009.3
20260502204919 65 193 7.0 8.7 0.00 0.00 0.00 33 1009.4
20260502204416 63 188 1.7 2.6 0.00 0.00 0.00 35 1009.6
20260502203914 63 182 1.7 2.6 0.00 0.00 0.00 33 1009.7
20260502203411 63 220 6.1 7.0 0.00 0.00 0.00 33 1009.7
20260502202907 62 183 1.7 2.6 0.00 0.00 0.00 33 1009.9
20260502202404 60 140 0.0 0.9 0.00 0.00 0.00 37 1010.0
20260502201902 60 206 6.1 7.8 0.00 0.00 0.00 35 1010.0
20260502201357 62 201 0.9 1.7 0.00 0.00 0.00 35 1010.2
20260502200855 61 145 0.9 0.9 0.00 0.00 0.00 35 1010.3
20260502200350 60 190 0.9 1.7 0.00 0.00 0.00 34 1010.2
20260502195848 61 176 4.3 5.2 0.00 0.00 0.00 33 1010.5
20260502195345 60 166 6.1 7.8 0.00 0.00 0.00 35 1010.5
20260502194841 62 218 1.7 1.7 0.00 0.00 0.00 37 1010.6
20260502194338 62 163 5.2 7.0 0.00 0.00 0.00 33 1010.7
20260502193834 61 208 7.8 9.6 0.00 0.00 0.00 32 1010.7
20260502193332 62 143 1.7 3.5 0.00 0.00 0.00 34 1010.7
20260502192827 62 167 7.8 9.6 0.00 0.00 0.00 33 1010.8
20260502192324 61 188 4.3 6.1 0.00 0.00 0.00 34 1010.8
20260502191821 61 159 6.1 7.0 0.00 0.00 0.00 33 1011.0
20260502191320 63 181 7.8 11.3 0.00 0.00 0.00 32 1010.9
20260502190816 60 218 1.7 3.5 0.00 0.00 0.00 35 1011.2
20260502190314 61 165 7.8 8.7 0.00 0.00 0.00 32 1011.5
20260502185809 62 133 3.5 7.0 0.00 0.00 0.00 34 1011.2
20260502185305 60 18 0.9 1.7 0.00 0.00 0.00 34 1011.2
20260502184802 60 205 10.4 13.0 0.00 0.00 0.00 32 1011.3
20260502184257 60 142 3.5 6.1 0.00 0.00 0.00 36 1011.5
20260502183754 61 192 3.5 6.1 0.00 0.00 0.00 35 1011.8
20260502183250 60 184 3.5 7.0 0.00 0.00 0.00 33 1011.7
20260502182746 60 317 0.9 1.7 0.00 0.00 0.00 31 1011.6
20260502182241 60 194 3.5 5.2 0.00 0.00 0.00 32 1011.8
20260502181737 59 246 1.7 2.6 0.00 0.00 0.00 34 1012.1
20260502181232 59 181 0.0 0.9 0.00 0.00 0.00 37 1012.0
20260502180728 58 161 5.2 7.0 0.00 0.00 0.00 32 1012.1
20260502180225 59 85 5.2 7.0 0.00 0.00 0.00 32 1012.1
20260502170144 55 263 2.6 2.6 0.00 0.00 0.00 33 1013.1
20260502164130 55 284 0.9 1.7 0.00 0.00 0.00 34 1013.4
20260502163626 56 157 2.6 5.2 0.00 0.00 0.00 32 1013.6
20260502163123 55 169 4.3 6.1 0.00 0.00 0.00 37 1013.5
20260502162620 55 221 4.3 5.2 0.00 0.00 0.00 32 1013.7
20260502162117 55 18 1.7 1.7 0.00 0.00 0.00 33 1013.7
20260502161614 54 243 5.2 6.1 0.00 0.00 0.00 35 1014.2
20260502161111 53 194 2.6 3.5 0.00 0.00 0.00 34 1013.9
20260502160609 54 152 7.0 7.8 0.00 0.00 0.00 35 1013.9
20260502160108 53 76 0.0 0.0 0.00 0.00 0.00 37 1014.1
20260502152022 52 208 3.5 7.0 0.00 0.00 0.00 38 1014.6
20260502151519 52 189 1.7 2.6 0.00 0.00 0.00 35 1014.6
20260502151016 51 176 4.3 6.1 0.00 0.00 0.00 38 1014.8
20260502150514 52 226 5.2 7.8 0.00 0.00 0.00 38 1014.7
20260502130359 39 163 0.9 0.9 0.00 0.00 0.00 66 1016.0
20260502123341 39 117 0.0 0.0 0.00 0.00 0.00 72 1015.9
20260502122838 35 160 0.0 0.0 0.00 0.00 0.00 82 1015.9
20260502122334 33 161 0.0 0.0 0.00 0.00 0.00 85 1016.1
20260502121833 31 161 0.0 0.0 0.00 0.00 0.00 86 1016.0
20260502121330 31 162 0.0 0.0 0.00 0.00 0.00 86 1016.1
20260502120827 31 73 0.0 0.0 0.00 0.00 0.00 87 1016.0
20260502120323 30 37 0.0 0.9 0.00 0.00 0.00 90 1016.1
20260502115821 28 47 0.0 0.0 0.00 0.00 0.00 92 1016.0
20260502115318 27 82 0.0 0.0 0.00 0.00 0.00 92 1016.1
20260502114814 27 86 0.0 0.0 0.00 0.00 0.00 91 1016.1
20260502114311 28 71 0.0 0.0 0.00 0.00 0.00 89 1016.1
20260502113808 26 102 0.0 0.0 0.00 0.00 0.00 90 1015.9
20260502113306 26 101 0.0 0.0 0.00 0.00 0.00 92 1016.2
20260502112804 26 88 0.0 0.0 0.00 0.00 0.00 94 1016.1
20260502112301 24 88 0.0 0.0 0.00 0.00 0.00 95 1015.9
20260502111758 24 65 0.0 0.0 0.00 0.00 0.00 99 1016.0
20260502111255 23 63 0.0 0.0 0.00 0.00 0.00 99 1016.1
20260502110753 23 91 0.0 0.0 0.00 0.00 0.00 99 1016.0
20260502110251 23 91 0.0 0.0 0.00 0.00 0.00 97 1016.0
20260502105748 22 91 0.0 0.0 0.00 0.00 0.00 99 1015.9
20260502105244 23 91 0.0 0.0 0.00 0.00 0.00 99 1016.1
20260502104742 23 91 0.0 0.0 0.00 0.00 0.00 99 1016.0
20260502104240 23 91 0.0 0.0 0.00 0.00 0.00 99 1016.0
20260502103737 23 91 0.0 0.0 0.00 0.00 0.00 99 1016.0
20260502103234 23 91 0.0 0.0 0.00 0.00 0.00 99 1015.9
20260502102731 23 91 0.0 0.0 0.00 0.00 0.00 99 1016.2
20260502102227 23 91 0.0 0.0 0.00 0.00 0.00 99 1016.1
20260502101726 23 92 0.0 0.0 0.00 0.00 0.00 99 1016.1
20260502101224 23 92 0.0 0.0 0.00 0.00 0.00 99 1016.1
20260502100721 23 92 0.0 0.0 0.00 0.00 0.00 99 1016.3
20260502100220 23 92 0.0 0.0 0.00 0.00 0.00 99 1016.4
20260502091154 24 92 0.0 0.0 0.00 0.00 0.00 99 1016.6
20260502090651 24 92 0.0 0.0 0.00 0.00 0.00 99 1016.3
20260502090148 24 92 0.0 0.0 0.00 0.00 0.00 99 1016.4
20260502080110 25 102 0.0 0.0 0.00 0.00 0.00 95 1016.8
20260502071038 26 102 0.0 0.0 0.00 0.00 0.00 93 1017.1
20260502070536 26 102 0.0 0.0 0.00 0.00 0.00 92 1017.0
20260502070033 27 102 0.0 0.0 0.00 0.00 0.00 90 1017.0
20260502065532 26 102 0.0 0.0 0.00 0.00 0.00 91 1017.3
20260502065029 26 102 0.0 0.0 0.00 0.00 0.00 91 1017.2
20260502064527 26 102 0.0 0.0 0.00 0.00 0.00 92 1017.1
20260502064024 26 102 0.0 0.0 0.00 0.00 0.00 92 1017.4
20260502063522 26 102 0.0 0.0 0.00 0.00 0.00 91 1017.4
20260502063020 26 102 0.0 0.0 0.00 0.00 0.00 90 1017.4
20260502062516 27 102 0.0 0.0 0.00 0.00 0.00 90 1017.4
20260502062015 27 102 0.0 0.0 0.00 0.00 0.00 90 1017.4
20260502061512 27 102 0.0 0.0 0.00 0.00 0.00 89 1017.4
20260502061009 27 102 0.0 0.0 0.00 0.00 0.00 89 1017.4
20260502060504 27 102 0.0 0.0 0.00 0.00 0.00 88 1017.3
20260502060001 27 102 0.0 0.0 0.00 0.00 0.00 88 1017.6
20260502055459 28 101 0.0 0.0 0.00 0.00 0.00 89 1017.5
20260502054958 28 101 0.0 0.0 0.00 0.00 0.00 89 1017.5
20260502054455 28 101 0.0 0.0 0.00 0.00 0.00 88 1017.5
20260502053952 28 102 0.0 0.0 0.00 0.00 0.00 88 1017.7
20260502053449 28 102 0.0 0.0 0.00 0.00 0.00 87 1017.6
20260502052947 28 102 0.0 0.0 0.00 0.00 0.00 85 1017.8
20260502052445 28 102 0.0 0.0 0.00 0.00 0.00 87 1017.5
20260502051944 28 102 0.0 0.0 0.00 0.00 0.00 86 1017.5
20260502051441 28 102 0.0 0.0 0.00 0.00 0.00 87 1017.5
20260502050938 28 102 0.0 0.0 0.00 0.00 0.00 87 1017.5
20260502050434 28 102 0.0 0.0 0.00 0.00 0.00 87 1017.4
20260502045932 28 102 0.0 0.0 0.00 0.00 0.00 85 1017.4
20260502045428 28 102 0.0 0.0 0.00 0.00 0.00 83 1017.6
20260502044925 29 102 0.0 0.0 0.00 0.00 0.00 84 1017.5
20260502044421 29 101 0.0 0.0 0.00 0.00 0.00 84 1017.7
20260502043918 29 51 0.0 0.0 0.00 0.00 0.00 84 1017.6
20260502043416 29 61 0.0 0.0 0.00 0.00 0.00 81 1017.7
20260502042915 29 69 0.0 0.0 0.00 0.00 0.00 83 1017.6
20260502042413 29 34 0.0 0.9 0.00 0.00 0.00 82 1017.6
20260502041910 29 101 0.0 0.0 0.00 0.00 0.00 81 1017.6
20260502041408 29 102 0.0 0.0 0.00 0.00 0.00 80 1017.6
20260502040905 29 102 0.0 0.0 0.00 0.00 0.00 78 1017.7
20260502040401 29 102 0.0 0.0 0.00 0.00 0.00 75 1017.6
20260502035857 30 102 0.0 0.0 0.00 0.00 0.00 76 1017.5
20260502035354 30 102 0.0 0.0 0.00 0.00 0.00 76 1017.7
20260502034851 30 102 0.0 0.0 0.00 0.00 0.00 76 1017.6
20260502034350 30 102 0.0 0.0 0.00 0.00 0.00 79 1017.7
20260502033848 30 102 0.0 0.0 0.00 0.00 0.00 75 1017.7
20260502033345 31 102 0.0 0.0 0.00 0.00 0.00 77 1017.7
20260502032841 31 102 0.0 0.0 0.00 0.00 0.00 75 1017.7
20260502032338 31 102 0.0 0.0 0.00 0.00 0.00 74 1017.7
20260502031836 32 101 0.0 0.0 0.00 0.00 0.00 77 1017.7
20260502031334 32 102 0.0 0.0 0.00 0.00 0.00 76 1017.7
20260502030832 33 102 0.0 0.0 0.00 0.00 0.00 77 1017.6
20260502030330 33 102 0.0 0.0 0.00 0.00 0.00 73 1017.7
20260502025826 33 101 0.0 0.0 0.00 0.00 0.00 72 1017.7
20260502025324 34 61 0.0 0.0 0.00 0.00 0.00 70 1017.6
20260502024822 34 61 0.0 0.0 0.00 0.00 0.00 66 1017.6
20260502024320 35 92 0.0 0.0 0.00 0.00 0.00 66 1017.6
20260502023817 34 105 0.0 0.0 0.00 0.00 0.00 68 1017.3
20260502023315 35 100 0.0 0.0 0.00 0.00 0.00 67 1017.7
20260502022813 35 106 0.0 0.0 0.00 0.00 0.00 68 1017.6
20260502022309 36 106 0.0 0.0 0.00 0.00 0.00 67 1017.5
20260502021805 37 106 0.0 0.0 0.00 0.00 0.00 59 1017.5
20260502021303 38 91 0.0 0.0 0.00 0.00 0.00 55 1017.4
20260502020800 37 30 0.0 0.9 0.00 0.00 0.00 62 1017.4
20260502020257 38 69 0.0 0.0 0.00 0.00 0.00 51 1017.5
20260502015755 39 104 0.0 0.0 0.00 0.00 0.00 53 1017.1
20260502015251 39 104 0.0 0.0 0.00 0.00 0.00 49 1017.5
20260502014748 40 104 0.0 0.0 0.00 0.00 0.00 50 1017.3
20260502014245 40 104 0.0 0.0 0.00 0.00 0.00 54 1017.2
20260502013742 42 107 0.0 0.0 0.00 0.00 0.00 49 1017.2
20260502013237 43 107 0.0 0.0 0.00 0.00 0.00 45 1017.2
20260502012734 44 109 0.0 0.0 0.00 0.00 0.00 42 1017.2
20260502012232 44 109 0.0 0.0 0.00 0.00 0.00 40 1017.2
20260502011729 45 109 0.0 0.0 0.00 0.00 0.00 40 1017.1
20260502011225 45 119 0.0 0.0 0.00 0.00 0.00 39 1017.1
20260502010723 46 119 0.0 0.0 0.00 0.00 0.00 39 1017.1
20260502010218 46 134 0.0 0.0 0.00 0.00 0.00 39 1017.2
20260502005716 47 153 0.0 0.0 0.00 0.00 0.00 39 1017.1
20260502005214 47 199 0.0 0.0 0.00 0.00 0.00 40 1017.2
20260502004710 48 325 0.0 0.0 0.00 0.00 0.00 38 1017.0
20260502004206 48 153 0.0 0.0 0.00 0.00 0.00 38 1017.1
20260502003704 48 265 0.0 0.0 0.00 0.00 0.00 38 1017.1
20260502003202 49 145 0.0 0.0 0.00 0.00 0.00 37 1016.9
20260502002657 49 111 0.0 0.0 0.00 0.00 0.00 35 1017.0
20260502002155 49 309 0.0 0.0 0.00 0.00 0.00 36 1016.9
20260502001652 50 77 0.0 0.0 0.00 0.00 0.00 33 1017.1
20260502001149 50 269 0.9 0.9 0.00 0.00 0.00 33 1017.0
20260502000647 50 267 0.0 0.0 0.00 0.00 0.00 32 1016.9
20260502000145 50 325 0.9 1.7 0.00 0.00 0.00 34 1016.9
20260501235641 50 239 1.7 1.7 0.00 0.00 0.00 32 1017.1
20260501235137 51 267 1.7 2.6 0.00 0.00 0.00 32 1017.0
20260501234632 52 280 2.6 2.6 0.00 0.00 0.00 30 1016.9
20260501234130 52 269 0.9 0.9 0.00 0.00 0.00 30 1016.8
20260501233628 53 190 1.7 2.6 0.00 0.00 0.00 28 1016.9
20260501233125 52 294 0.9 0.9 0.00 0.00 0.00 30 1016.9
20260501232621 53 265 1.7 1.7 0.00 0.00 0.00 30 1017.0
20260501232119 52 326 1.7 1.7 0.00 0.00 0.00 32 1016.9
20260501231616 53 274 4.3 5.2 0.00 0.00 0.00 32 1016.8
20260501231114 53 280 1.7 2.6 0.00 0.00 0.00 30 1016.9
20260501230612 53 30 0.9 1.7 0.00 0.00 0.00 33 1016.8
20260501230110 54 233 0.9 0.9 0.00 0.00 0.00 31 1016.8
20260501225607 55 26 3.5 5.2 0.00 0.00 0.00 34 1016.8
20260501225103 53 21 1.7 1.7 0.00 0.00 0.00 32 1016.8